SL-14 DEB, 45310

Orbit data source: Space-Track

SL-14 DEB, 45310 is space debris in LEO originally from a launch on Thu, 15 Aug 1991 UTC launched from the Plesetsk Missile And Space Complex (PKMTR). Debris objects in space refer to the collection of defunct objects orbiting the Earth. Examples of debris include non-operational satellites, rocket bodies, and fragments generated from explosions, collisions, or faulty payload assembly.

Loading next visibility...
Identifier
45310, 1991-056AY
Orbit
LEO
Country
Flag of CISCIS
Related business
Manufacturer
Unknown
Mission
Spacecraft
Bus & Motor
Unknown
Mass
Unknown
Launch date (UTC)
1991-08-15 (34 years ago)
Launch vehicle
Unknown
Launch site
Plesetsk Missile And Space Complex (PKMTR)
Object type
Payload
Rocket body
Debris
Shape & HBR
Unknown shape, 0.1 m
Radar Cross Section
Small (<0.1 m²)

Expand to show TLE details & history
Last TLE update: 1 day ago

TLE from 1 day ago
0 SL-14 DEB
1 45310U 91056AY  25286.29082595  .00000248  00000-0  79502-3 0  9997
2 45310  82.6015  11.8457 0100573 314.6332  44.6610 12.97791457266749
Epoch: 2025-10-13T06:58Z
TLE epoch observation values (Epoch: 2025-10-13T06:58:47.362Z)
Latitude
0.00006°
Longitude
-114.94736°
Altitude
1,219.198 km
Speed
7.27 km/s
True Right ascension
00h 47m 22s
True Declination
0° 00' 00"
Sunlit
Object was in full shadow at epoch
Visualization orbit readout
Latitude
Unknown
Longitude
Unknown
Altitude
Unknown
Speed
Unknown
Apparent Right ascension
Unknown
Apparent Declination
Unknown
Sunlit
N/A
Visualization observer readout
Local Sidereal Time
10:00:05
Azimuth
Unknown
Elevation
Unknown
Doppler factor
Unknown
Orbital elements
Apogee altitude
1,344.925 km
Perigee altitude
1,191.125 km
Semi-major axis
7,646.162 km
Eccentricity
0.01006
Inclination
82.6015°
RAAN
11.8457°
Arg. of periapsis
314.6332°
True anomaly
45.47837°
Mean anomaly
44.661°
Eccentric anomaly
45.06895°
Mean motion
3.24622 °/min
Orbital period
110.9 mins
BSTAR
0.00079502
Loading maneuver chart data...
Computing Atmospheric mass density...
Loading historical data...
Loading historical data...
Loading historical data...
Loading historical data...
Loading historical data...
Loading historical data...
Loading historical data...

Documentation

Showing up to 5 results
|